Showing default

YAOGAN 20C, 40111

Orbit data source: Space-Track

YAOGAN 20C, 40111 is a payload satellite owned by PLA GAD (CN) in LEO that was launched on Sat, 09 Aug 2014 UTC via a CHANG ZHENG 4C launch vehicle from the Jiuquan Satellite Launch Center, China (JSC). Payload-class satellites include a variety of spacecraft equipped with specific instruments for various scientific and technological missions. These include communications satellites like Starlink; space stations such as the ISS; scientific satellites like the Hubble; Earth observation satellites from companies like Planet Labs, Umbra, and HawkEye 360; GPS; miniature CubeSats for education and research; and military/defense satellites.

Loading next visibility...
Identifier
40111, 2014-047C
Orbit
LEO
Country
Flag of CNCN / PRC
Related business
Manufacturer
CAST
Mission
Operational Defense Sigint
Bus & Motor
Unknown
Mass
~500 kg wet, ~500 kg dry
Launch date (UTC)
2014-08-09 (11 years ago)
Launch vehicle
CHANG ZHENG 4C
Launch site
Jiuquan Satellite Launch Center, China (JSC)
Object type
Payload
Rocket body
Debris
Shape & HBR
Box + 2 Pan, 0.5 m
Radar Cross Section
0.446 m², Large (>1 m²)

Expand to show TLE details & history
Last TLE update: 10 hours ago

TLE from 10 hours ago
0 YAOGAN 20C
1 40111U 14047C   25258.34888830 -.00000056  00000-0  39479-4 0  9995
2 40111  63.3840   8.1778 0365884  13.6361 347.4234 13.45409019545319
Epoch: 2025-09-15T08:22Z
TLE epoch observation values (Epoch: 2025-09-15T08:22:23.949Z)
Latitude
0.00004°
Longitude
-111.97679°
Altitude
824.777 km
Speed
7.573 km/s
True Right ascension
00h 32m 42s
True Declination
0° 00' 00"
Sunlit
Object was in full shadow at epoch
Visualization orbit readout
Latitude
Unknown
Longitude
Unknown
Altitude
Unknown
Speed
Unknown
Apparent Right ascension
Unknown
Apparent Declination
Unknown
Sunlit
N/A
Visualization observer readout
Local Sidereal Time
10:59:21
Azimuth
Unknown
Elevation
Unknown
Doppler factor
Unknown
Orbital elements
Apogee altitude
1,361.202 km
Perigee altitude
814.852 km
Semi-major axis
7,466.164 km
Eccentricity
0.03659
Inclination
63.384°
RAAN
8.1778°
Arg. of periapsis
13.6361°
True anomaly
346.46793°
Mean anomaly
347.4234°
Eccentric anomaly
346.95004°
Mean motion
3.36432 °/min
Orbital period
107.01 mins
BSTAR
0.000039479
Loading maneuver chart data...
Computing Atmospheric mass density...
Loading historical data...
Loading historical data...
Loading historical data...
Loading historical data...
Loading historical data...
Loading historical data...
Loading historical data...

Documentation

Showing up to 5 results
|